Date String (YYYY-MM-DD hh:mm:ss) UTC,Instrument flags,Ambient pressure (hPa),Sample flow (lpm),Bypass flow (lpm),Sample temperature (°C),Ambient temperature (°C),ASC tube jacket temperature (°C),LED temperature (°C),Box temperature (°C),Sample RH (%),Span deviation,Mass concentration (μg/m³),Mass concentration (μg/m³),Mass concentration (μg/m³)
DateTimeUTC,F1_M11,P_M11,Q1_M11,Q2_M11,T1_M11,T2_M11,T3_M11,T4_M11,T5_M11,U1_M11,ZSPAN_M11,X0_M11,X2_M11,X1_M11
2023-04-08 07:00:00,,0829.4,5.01,0.00,23.2,21.4,00.0,31.6,24.7,10.5,0000.0,0006.67,0003.03,0001.64
2023-04-08 07:01:00,,0829.3,5.00,0.00,23.2,21.4,00.0,31.6,24.7,10.4,0000.0,0006.70,0003.06,0001.65
2023-04-08 07:02:00,,0829.4,4.99,0.00,23.2,21.4,00.0,31.6,24.7,10.4,0000.0,0006.53,0003.03,0001.64
2023-04-08 07:03:00,,0829.4,5.01,0.00,23.1,21.4,00.0,31.6,24.6,10.5,0000.0,0006.75,0002.97,0001.63
2023-04-08 07:04:00,,0829.4,5.01,0.00,23.1,21.4,00.0,31.6,24.6,10.5,0000.0,0006.97,0003.01,0001.63
2023-04-08 07:05:00,,0829.4,4.99,0.00,23.1,21.4,00.0,31.6,24.6,10.5,0000.0,0007.33,0002.97,0001.64
2023-04-08 07:06:00,,0829.3,5.00,0.00,23.1,21.4,00.0,31.6,24.6,10.5,0000.0,0008.41,0002.90,0001.65
2023-04-08 07:07:00,,0829.3,5.00,0.00,23.1,21.3,00.0,31.5,24.6,10.5,0000.0,0009.70,0002.89,0001.65
2023-04-08 07:08:00,,0829.3,5.00,0.00,23.1,21.2,00.0,31.5,24.6,10.5,0000.0,0010.02,0002.89,0001.65
2023-04-08 07:09:00,,0829.3,5.01,0.00,23.1,21.1,00.0,31.5,24.6,10.5,0000.0,0010.19,0002.99,0001.65
2023-04-08 07:10:00,,0829.3,5.00,0.00,23.0,21.1,00.0,31.5,24.5,10.5,0000.0,0010.76,0003.10,0001.65
2023-04-08 07:11:00,,0829.3,4.99,0.00,23.0,21.1,00.0,31.5,24.4,10.5,0000.0,0010.62,0003.03,0001.65
2023-04-08 07:12:00,,0829.2,5.00,0.00,23.0,21.1,00.0,31.5,24.4,10.5,0000.0,0010.49,0002.94,0001.64
2023-04-08 07:13:00,,0829.2,5.01,0.00,22.9,21.1,00.0,31.4,24.4,10.6,0000.0,0010.67,0002.96,0001.64
2023-04-08 07:14:00,,0829.2,5.01,0.00,22.9,21.1,00.0,31.4,24.4,10.6,0000.0,0010.50,0002.94,0001.65
2023-04-08 07:15:00,,0829.2,5.00,0.00,22.9,21.1,00.0,31.4,24.5,10.6,0000.0,0010.16,0002.89,0001.65
2023-04-08 07:16:00,,0829.2,5.00,0.00,22.9,21.1,00.0,31.4,24.5,10.6,0000.0,0009.87,0002.84,0001.64
2023-04-08 07:17:00,,0829.3,5.00,0.00,22.9,21.1,00.0,31.4,24.4,10.6,0000.0,0008.86,0002.88,0001.64
2023-04-08 07:18:00,,0829.2,4.99,0.00,22.9,21.1,00.0,31.4,24.3,10.6,0000.0,0007.71,0002.96,0001.63
2023-04-08 07:19:00,,0829.2,5.00,0.00,22.8,21.0,00.0,31.4,24.3,10.6,0000.0,0007.27,0002.98,0001.63
2023-04-08 07:20:00,,0829.3,5.00,0.00,22.8,21.0,00.0,31.3,24.3,10.6,0000.0,0007.08,0002.89,0001.62
2023-04-08 07:21:00,,0829.3,5.00,0.00,22.8,20.9,00.0,31.3,24.2,10.7,0000.0,0006.28,0002.83,0001.64
2023-04-08 07:22:00,,0829.3,5.00,0.00,22.8,20.9,00.0,31.3,24.2,10.8,0000.0,0006.30,0002.85,0001.65
2023-04-08 07:23:00,,0829.3,5.01,0.00,22.7,20.8,00.0,31.3,24.2,10.8,0000.0,0006.13,0002.85,0001.65
2023-04-08 07:24:00,,0829.3,5.00,0.00,22.7,20.8,00.0,31.3,24.2,10.8,0000.0,0005.75,0002.83,0001.65
2023-04-08 07:25:00,,0829.3,5.00,0.00,22.7,20.8,00.0,31.2,24.2,10.8,0000.0,0005.77,0002.82,0001.64
2023-04-08 07:26:00,,0829.3,5.00,0.00,22.7,20.8,00.0,31.2,24.1,10.8,0000.0,0005.80,0002.83,0001.66
2023-04-08 07:27:00,,0829.3,5.00,0.00,22.6,20.8,00.0,31.2,24.1,10.8,0000.0,0006.20,0002.91,0001.67
2023-04-08 07:28:00,,0829.3,5.00,0.00,22.6,20.8,00.0,31.2,24.1,10.8,0000.0,0006.35,0002.94,0001.67
2023-04-08 07:29:00,,0829.3,5.00,0.00,22.6,20.8,00.0,31.2,24.1,10.8,0000.0,0006.31,0002.92,0001.69
2023-04-08 07:30:00,,0829.3,5.00,0.00,22.7,20.8,00.0,31.1,24.2,10.8,0000.0,0006.35,0002.94,0001.69
2023-04-08 07:31:00,,0829.3,5.00,0.00,22.7,20.9,00.0,31.1,24.2,10.8,0000.0,0006.57,0002.93,0001.70
2023-04-08 07:32:00,,0829.3,5.00,0.00,22.7,20.9,00.0,31.1,24.2,10.8,0000.0,0007.42,0002.96,0001.69
2023-04-08 07:33:00,,0829.2,4.99,0.00,22.7,20.9,00.0,31.1,24.2,10.8,0000.0,0007.59,0003.02,0001.69
2023-04-08 07:34:00,,0829.3,4.99,0.00,22.7,20.9,00.0,31.1,24.1,10.8,0000.0,0007.63,0003.03,0001.69
2023-04-08 07:35:00,,0829.3,5.00,0.00,22.6,20.8,00.0,31.1,24.2,10.8,0000.0,0007.52,0002.98,0001.69
2023-04-08 07:36:00,,0829.3,5.00,0.00,22.6,20.8,00.0,31.1,24.1,10.8,0000.0,0007.64,0003.08,0001.69
2023-04-08 07:37:00,,0829.3,5.01,0.00,22.6,20.8,00.0,31.1,24.1,10.8,0000.0,0007.69,0003.13,0001.68
2023-04-08 07:38:00,,0829.3,5.00,0.00,22.6,20.9,00.0,31.1,24.1,10.9,0000.0,0007.82,0003.12,0001.67
2023-04-08 07:39:00,,0829.3,5.00,0.00,22.6,20.9,00.0,31.0,24.1,10.8,0000.0,0008.11,0003.13,0001.67
2023-04-08 07:40:00,,0829.4,4.99,0.00,22.6,20.9,00.0,31.0,24.1,10.9,0000.0,0008.05,0003.13,0001.68
2023-04-08 07:41:00,,0829.3,5.00,0.00,22.7,20.9,00.0,31.0,24.1,10.9,0000.0,0008.10,0003.11,0001.68
2023-04-08 07:42:00,,0829.3,5.00,0.00,22.7,20.9,00.0,31.0,24.1,10.9,0000.0,0008.11,0003.09,0001.68
2023-04-08 07:43:00,,0829.3,4.99,0.00,22.6,20.9,00.0,31.0,24.1,10.8,0000.0,0007.31,0003.05,0001.68
2023-04-08 07:44:00,,0829.3,5.00,0.00,22.6,20.9,00.0,31.0,24.1,10.8,0000.0,0007.20,0002.99,0001.68
2023-04-08 07:45:00,,0829.3,5.01,0.00,22.6,20.9,00.0,31.0,24.0,10.8,0000.0,0007.76,0002.97,0001.69
2023-04-08 07:46:00,,0829.3,5.00,0.00,22.6,20.9,00.0,31.0,24.0,10.8,0000.0,0008.93,0003.00,0001.70
2023-04-08 07:47:00,,0829.3,4.99,0.00,22.6,20.8,00.0,31.0,24.0,10.7,0000.0,0009.04,0002.98,0001.70
2023-04-08 07:48:00,,0829.3,4.99,0.00,22.5,20.7,00.0,31.0,24.0,10.8,0000.0,0008.87,0002.85,0001.69
2023-04-08 07:49:00,,0829.3,5.01,0.00,22.5,20.7,00.0,31.0,24.0,10.8,0000.0,0008.73,0002.83,0001.69
2023-04-08 07:50:00,,0829.3,5.01,0.00,22.5,20.6,00.0,30.9,23.9,10.8,0000.0,0008.91,0002.84,0001.69
2023-04-08 07:51:00,,0829.3,5.01,0.00,22.5,20.6,00.0,30.9,23.9,10.8,0000.0,0009.21,0002.74,0001.67
2023-04-08 07:52:00,,0829.3,4.98,0.00,22.5,20.7,00.0,30.9,23.9,10.7,0000.0,0009.05,0002.72,0001.66
2023-04-08 07:53:00,,0829.3,5.00,0.00,22.4,20.7,00.0,30.9,23.9,10.8,0000.0,0009.23,0002.84,0001.66
2023-04-08 07:54:00,,0829.3,5.00,0.00,22.4,20.7,00.0,30.9,23.9,10.8,0000.0,0009.82,0002.89,0001.67
2023-04-08 07:55:00,,0829.3,5.00,0.00,22.4,20.7,00.0,30.9,23.9,10.7,0000.0,0009.95,0002.95,0001.68
2023-04-08 07:56:00,,0829.3,5.00,0.00,22.4,20.6,00.0,30.9,23.9,10.8,0000.0,0010.33,0003.04,0001.69
2023-04-08 07:57:00,,0829.3,5.00,0.00,22.4,20.6,00.0,30.9,23.8,10.8,0000.0,0010.18,0003.11,0001.68
2023-04-08 07:58:00,,0829.2,5.00,0.00,22.4,20.6,00.0,30.8,23.8,10.8,0000.0,0011.00,0003.13,0001.71
2023-04-08 07:59:00,,0829.2,5.00,0.00,22.4,20.6,00.0,30.8,23.8,10.8,0000.0,0011.97,0003.15,0001.74
